Date, platform_minetest, platform_other, reason_new, reason_dependency, reason_update
2022-10-23, 7, 0, 6, 0, 0
2022-10-24, 2, 0, 2, 0, 0
2022-10-25, 3, 0, 3, 0, 0
2022-10-26, 2, 1, 2, 0, 0
2022-10-27, 4, 0, 4, 0, 0
2022-10-28, 3, 0, 2, 0, 0
2022-10-29, 4, 0, 4, 0, 0
2022-10-30, 4, 0, 4, 0, 0
2022-10-31, 5, 0, 5, 0, 0
2022-11-01, 7, 0, 4, 0, 0
2022-11-02, 2, 0, 1, 0, 0
2022-11-03, 2, 0, 1, 0, 0
2022-11-04, 3, 2, 2, 0, 0
2022-11-05, 10, 0, 8, 0, 0
2022-11-06, 8, 0, 7, 0, 0
2022-11-07, 2, 0, 1, 0, 0
2022-11-08, 4, 0, 3, 0, 0
2022-11-09, 3, 1, 3, 0, 0
2022-11-10, 2, 0, 2, 0, 0
2022-11-11, 5, 0, 4, 0, 0
2022-11-12, 5, 0, 4, 0, 0
2022-11-13, 1, 0, 1, 0, 0
2022-11-14, 3, 1, 2, 0, 0
2022-11-15, 2, 0, 2, 0, 0
2022-11-16, 3, 0, 3, 0, 0
2022-11-17, 4, 0, 3, 0, 0
2022-11-18, 1, 0, 1, 0, 0
2022-11-19, 2, 0, 1, 0, 0
2022-11-20, 2, 0, 2, 0, 0
2022-11-21, 1, 0, 1, 0, 0
2022-11-22, 4, 0, 4, 0, 0
2022-11-25, 3, 0, 3, 0, 0
2022-11-26, 5, 1, 5, 0, 0
2022-11-27, 6, 0, 4, 0, 0
2022-11-28, 3, 0, 3, 0, 0
2022-11-29, 2, 0, 2, 0, 0
2022-11-30, 5, 0, 3, 0, 0
2022-12-02, 0, 2, 0, 0, 0
2022-12-03, 6, 1, 5, 0, 0
2022-12-04, 5, 0, 4, 0, 0
2022-12-05, 1, 0, 1, 0, 0
2022-12-06, 2, 3, 2, 0, 0
2022-12-07, 1, 2, 1, 0, 0
2022-12-08, 5, 11, 5, 0, 0
2022-12-09, 2, 3, 2, 0, 0
2022-12-10, 1, 0, 0, 0, 0
2022-12-11, 1, 0, 1, 0, 0
2022-12-12, 3, 0, 2, 0, 0
2022-12-13, 3, 0, 3, 0, 0
2022-12-14, 4, 1, 3, 0, 0
2022-12-15, 3, 1, 3, 0, 0
2022-12-16, 2, 0, 2, 0, 0
2022-12-17, 4, 0, 4, 0, 0
2022-12-18, 4, 0, 3, 0, 0
2022-12-19, 2, 3, 2, 0, 0
2022-12-20, 2, 0, 2, 0, 0
2022-12-21, 4, 1, 3, 0, 0
2022-12-22, 2, 0, 2, 0, 0
2022-12-23, 5, 1, 5, 0, 0
2022-12-24, 1, 4, 1, 0, 0
2022-12-25, 4, 4, 4, 0, 0
2022-12-26, 6, 0, 5, 0, 0
2022-12-27, 6, 0, 3, 0, 0
2022-12-28, 2, 0, 2, 0, 0
2022-12-29, 7, 1, 5, 0, 0
2022-12-30, 6, 0, 5, 0, 0
2022-12-31, 2, 0, 2, 0, 0
2023-01-01, 2, 0, 2, 0, 0
2023-01-02, 4, 0, 3, 0, 0
2023-01-03, 3, 0, 3, 0, 0
2023-01-04, 5, 1, 5, 0, 0
2023-01-05, 2, 0, 1, 0, 0
2023-01-06, 5, 0, 4, 0, 0
2023-01-07, 2, 0, 1, 0, 0
2023-01-08, 1, 0, 0, 0, 0
2023-01-09, 1, 0, 1, 0, 0
2023-01-10, 4, 2, 3, 0, 0
2023-01-11, 3, 0, 2, 0, 0
2023-01-12, 3, 0, 2, 0, 0
2023-01-13, 1, 0, 0, 0, 0
2023-01-14, 5, 0, 3, 0, 0
2023-01-15, 6, 2, 5, 0, 0
2023-01-16, 4, 2, 3, 0, 0
2023-01-17, 6, 1, 5, 0, 0
2023-01-18, 0, 1, 0, 0, 0
2023-01-19, 2, 0, 2, 0, 0
2023-01-20, 2, 1, 1, 0, 0
2023-01-21, 2, 1, 2, 0, 0
2023-01-22, 2, 0, 2, 0, 0
2023-01-23, 2, 1, 2, 0, 0
2023-01-24, 3, 0, 3, 0, 0
2023-01-25, 2, 0, 2, 0, 0
2023-01-26, 3, 0, 3, 0, 0
2023-01-27, 7, 1, 7, 0, 0
2023-01-28, 5, 1, 5, 0, 0
2023-01-29, 1, 0, 1, 0, 0
2023-01-30, 4, 0, 4, 0, 0
2023-01-31, 4, 1, 2, 0, 0
2023-02-01, 5, 0, 5, 0, 0
2023-02-02, 2, 0, 1, 0, 0
2023-02-03, 6, 0, 6, 0, 0
2023-02-04, 4, 1, 2, 0, 0
2023-02-05, 2, 2, 1, 0, 0
2023-02-06, 6, 1, 5, 0, 0
2023-02-07, 2, 0, 2, 0, 0
2023-02-08, 1, 0, 1, 0, 0
2023-02-09, 5, 2, 4, 0, 0
2023-02-10, 2, 1, 2, 0, 0
2023-02-11, 3, 0, 3, 0, 0
2023-02-12, 2, 2, 2, 0, 0
2023-02-13, 0, 2, 0, 0, 0
2023-02-14, 1, 2, 1, 0, 0
2023-02-15, 1, 2, 1, 0, 0
2023-02-16, 1, 0, 1, 0, 0
2023-02-17, 2, 1, 2, 0, 0
2023-02-18, 2, 0, 2, 0, 0
2023-02-19, 8, 0, 8, 0, 0
2023-02-20, 1, 0, 1, 0, 0
2023-02-21, 4, 0, 4, 0, 0
2023-02-22, 2, 2, 1, 0, 0
2023-02-23, 1, 0, 1, 0, 0
2023-02-24, 4, 1, 4, 0, 0
2023-02-25, 2, 0, 2, 0, 0
2023-02-27, 2, 0, 2, 0, 0
2023-03-02, 2, 1, 2, 0, 0
2023-03-03, 6, 0, 5, 0, 0
2023-03-05, 1, 0, 1, 0, 0
2023-03-06, 1, 0, 1, 0, 0
2023-03-07, 2, 1, 2, 0, 0
2023-03-09, 1, 1, 1, 0, 0
2023-03-10, 2, 0, 1, 0, 0
2023-03-11, 5, 0, 4, 0, 0
2023-03-12, 3, 0, 1, 0, 0
2023-03-13, 2, 1, 0, 0, 0
2023-03-14, 1, 0, 1, 0, 0
2023-03-15, 2, 0, 2, 0, 0
2023-03-16, 3, 0, 1, 0, 0
2023-03-17, 0, 1, 0, 0, 0
2023-03-18, 4, 1, 2, 0, 0
2023-03-19, 2, 0, 2, 0, 0
2023-03-20, 2, 0, 2, 0, 0
2023-03-21, 1, 0, 0, 0, 0
2023-03-22, 1, 0, 1, 0, 0
2023-03-23, 1, 0, 1, 0, 0
2023-03-24, 1, 0, 1, 0, 0
2023-03-25, 4, 0, 4, 0, 0
2023-03-26, 2, 0, 2, 0, 0
2023-03-28, 5, 1, 2, 0, 0
2023-03-29, 3, 0, 3, 0, 0
2023-03-30, 1, 0, 1, 0, 0
2023-03-31, 1, 0, 1, 0, 0
2023-04-01, 3, 0, 2, 0, 0
2023-04-02, 5, 0, 4, 0, 0
2023-04-03, 2, 1, 1, 0, 0
2023-04-04, 2, 0, 2, 0, 0
2023-04-05, 2, 1, 1, 0, 0
2023-04-06, 2, 0, 1, 0, 0
2023-04-07, 5, 0, 3, 0, 0
2023-04-08, 3, 0, 2, 0, 0
2023-04-09, 5, 1, 2, 0, 0
2023-04-10, 3, 0, 1, 0, 0
2023-04-11, 2, 0, 1, 0, 0
2023-04-13, 2, 0, 2, 0, 0
2023-04-15, 3, 0, 3, 0, 0
2023-04-16, 2, 1, 2, 0, 0
2023-04-17, 3, 1, 2, 0, 0
2023-04-18, 4, 1, 2, 0, 0
2023-04-19, 1, 0, 1, 0, 0
2023-04-20, 1, 0, 1, 0, 0
2023-04-21, 5, 0, 5, 0, 0
2023-04-22, 6, 0, 5, 0, 0
2023-04-23, 2, 0, 2, 0, 0
2023-04-24, 2, 0, 2, 0, 0
2023-04-25, 3, 1, 3, 0, 0
2023-04-26, 3, 0, 3, 0, 0
2023-04-27, 2, 0, 2, 0, 0
2023-04-28, 2, 0, 1, 0, 0
2023-04-29, 1, 0, 1, 0, 0
2023-04-30, 4, 0, 4, 0, 0
2023-05-01, 3, 1, 3, 0, 0
2023-05-03, 1, 0, 1, 0, 0
2023-05-04, 0, 1, 0, 0, 0
2023-05-05, 0, 2, 0, 0, 0
2023-05-06, 5, 0, 4, 0, 0
2023-05-07, 3, 0, 3, 0, 0
2023-05-08, 1, 0, 1, 0, 0
2023-05-09, 5, 0, 3, 0, 0
2023-05-10, 3, 0, 1, 0, 0
2023-05-11, 8, 4, 7, 0, 0
2023-05-12, 3, 0, 3, 0, 0
2023-05-13, 4, 0, 4, 0, 0
2023-05-14, 2, 0, 2, 0, 0
2023-05-15, 1, 0, 1, 0, 0
2023-05-16, 3, 0, 1, 0, 0
2023-05-17, 1, 1, 1, 0, 0
2023-05-19, 2, 1, 2, 0, 0
2023-05-20, 2, 0, 2, 0, 0
2023-05-21, 3, 1, 2, 0, 0
2023-05-22, 1, 0, 0, 0, 0
2023-05-23, 2, 1, 2, 0, 0
2023-05-24, 5, 0, 3, 0, 0
2023-05-25, 1, 0, 1, 0, 0
2023-05-26, 4, 0, 3, 0, 0
2023-05-27, 5, 0, 4, 0, 0
2023-05-28, 0, 1, 0, 0, 0
2023-05-29, 3, 0, 3, 0, 0
2023-05-30, 2, 3, 2, 0, 0
2023-06-02, 2, 0, 2, 0, 0
2023-06-03, 3, 0, 3, 0, 0
2023-06-04, 4, 0, 2, 0, 0
2023-06-05, 2, 1, 2, 0, 0
2023-06-06, 2, 0, 2, 0, 0
2023-06-07, 0, 1, 0, 0, 0
2023-06-08, 2, 0, 2, 0, 0
2023-06-09, 2, 0, 2, 0, 0
2023-06-10, 4, 0, 4, 0, 0
2023-06-12, 5, 0, 4, 0, 0
2023-06-13, 3, 0, 3, 0, 0
2023-06-14, 3, 0, 3, 0, 0
2023-06-15, 2, 0, 2, 0, 0
2023-06-16, 5, 0, 4, 0, 0
2023-06-17, 4, 2, 4, 0, 0
2023-06-18, 4, 0, 4, 0, 0
2023-06-19, 2, 1, 2, 0, 0
2023-06-20, 1, 0, 0, 0, 0
2023-06-21, 3, 0, 3, 0, 0
2023-06-22, 5, 0, 5, 0, 0
2023-06-23, 1, 1, 1, 0, 0
2023-06-24, 3, 0, 2, 0, 0
2023-06-25, 3, 0, 3, 0, 0
2023-06-27, 6, 0, 5, 0, 0
2023-06-28, 0, 1, 0, 0, 0
2023-06-30, 1, 0, 1, 0, 0
2023-07-01, 1, 0, 1, 0, 0
2023-07-02, 4, 0, 3, 0, 0
2023-07-03, 1, 2, 0, 0, 0
2023-07-04, 4, 0, 3, 0, 0
2023-07-05, 2, 0, 2, 0, 0
2023-07-06, 3, 0, 3, 0, 0
2023-07-07, 2, 1, 1, 0, 0
2023-07-08, 6, 0, 6, 0, 0
2023-07-09, 2, 0, 2, 0, 0
2023-07-10, 2, 0, 2, 0, 0
2023-07-11, 3, 2, 3, 0, 0
2023-07-12, 3, 0, 3, 0, 0
2023-07-13, 2, 0, 2, 0, 0
2023-07-14, 4, 0, 4, 0, 0
2023-07-15, 1, 0, 1, 0, 0
2023-07-16, 4, 0, 4, 0, 0
2023-07-17, 0, 1, 0, 0, 0
2023-07-18, 4, 0, 1, 0, 0
2023-07-19, 5, 0, 4, 0, 0
2023-07-20, 3, 0, 3, 0, 0
2023-07-21, 5, 0, 5, 0, 0
2023-07-22, 1, 0, 1, 0, 0
2023-07-23, 4, 1, 4, 0, 0
2023-07-24, 2, 0, 2, 0, 0
2023-07-25, 1, 0, 1, 0, 0
2023-07-26, 3, 0, 3, 0, 0
2023-07-27, 1, 0, 1, 0, 0
2023-07-28, 1, 0, 1, 0, 0
2023-07-29, 3, 0, 3, 0, 0
2023-07-30, 3, 0, 3, 0, 0
2023-07-31, 2, 0, 2, 0, 0
2023-08-01, 1, 0, 1, 0, 0
2023-08-02, 5, 1, 5, 0, 0
2023-08-03, 2, 1, 2, 0, 0
2023-08-04, 2, 0, 2, 0, 0
2023-08-05, 2, 0, 2, 0, 0
2023-08-06, 4, 0, 4, 0, 0
2023-08-07, 5, 0, 3, 0, 0
2023-08-08, 1, 1, 1, 0, 0
2023-08-09, 3, 0, 3, 0, 0
2023-08-10, 4, 0, 4, 0, 0
2023-08-11, 3, 1, 3, 0, 0
2023-08-12, 4, 0, 3, 0, 0
2023-08-13, 4, 0, 3, 0, 0
2023-08-14, 2, 1, 2, 0, 0
2023-08-15, 3, 0, 1, 0, 0
2023-08-16, 5, 1, 5, 0, 0
2023-08-17, 1, 0, 0, 0, 0
2023-08-18, 3, 0, 3, 0, 0
2023-08-19, 2, 0, 2, 0, 0
2023-08-20, 1, 0, 1, 0, 0
2023-08-21, 2, 1, 1, 0, 0
2023-08-22, 3, 0, 2, 0, 0
2023-08-23, 3, 0, 2, 0, 0
2023-08-24, 2, 0, 1, 0, 0
2023-08-25, 1, 0, 0, 0, 0
2023-08-26, 1, 0, 1, 0, 0
2023-08-27, 2, 0, 2, 0, 0
2023-08-28, 1, 0, 1, 0, 0
2023-08-30, 0, 1, 0, 0, 0
2023-08-31, 2, 0, 2, 0, 0
2023-09-01, 4, 0, 4, 0, 0
2023-09-02, 3, 0, 3, 0, 0
2023-09-03, 2, 0, 2, 0, 0
2023-09-04, 2, 0, 2, 0, 0
2023-09-06, 3, 0, 3, 0, 0
2023-09-07, 3, 0, 2, 0, 0
2023-09-08, 1, 0, 1, 0, 0
2023-09-09, 2, 1, 1, 0, 0
2023-09-10, 1, 0, 1, 0, 0
2023-09-11, 1, 0, 1, 0, 0
2023-09-12, 1, 0, 0, 0, 0
2023-09-13, 3, 0, 3, 0, 0
2023-09-14, 3, 1, 3, 0, 0
2023-09-15, 1, 1, 1, 0, 0
2023-09-16, 4, 0, 4, 0, 0
2023-09-17, 1, 0, 1, 0, 0
2023-09-18, 6, 0, 6, 0, 0
2023-09-19, 2, 0, 2, 0, 0
2023-09-20, 1, 0, 1, 0, 0
2023-09-22, 8, 0, 8, 0, 0
2023-09-23, 3, 1, 3, 0, 0
2023-09-24, 2, 0, 1, 0, 0
2023-09-25, 1, 0, 1, 0, 0
2023-09-26, 1, 1, 1, 0, 0
2023-09-27, 3, 0, 3, 0, 0
2023-09-28, 1, 3, 1, 0, 0
2023-09-29, 2, 0, 2, 0, 0
2023-09-30, 2, 0, 2, 0, 0
2023-10-01, 3, 0, 3, 0, 0
2023-10-02, 1, 0, 1, 0, 0
2023-10-03, 1, 0, 1, 0, 0
2023-10-05, 3, 0, 3, 0, 0
2023-10-07, 3, 0, 3, 0, 0
2023-10-08, 5, 0, 5, 0, 0
2023-10-10, 4, 1, 4, 0, 0
2023-10-11, 1, 0, 0, 0, 0
2023-10-12, 4, 0, 4, 0, 0
2023-10-13, 2, 0, 2, 0, 0
2023-10-14, 2, 0, 2, 0, 0
2023-10-15, 1, 0, 1, 0, 0
2023-10-16, 4, 0, 4, 0, 0
2023-10-17, 1, 1, 1, 0, 0
2023-10-18, 2, 0, 1, 0, 0
2023-10-19, 2, 0, 2, 0, 0
2023-10-20, 2, 0, 2, 0, 0
2023-10-21, 5, 0, 5, 0, 0
2023-10-22, 4, 0, 4, 0, 0
2023-10-23, 1, 0, 0, 0, 0
2023-10-24, 1, 0, 1, 0, 0
2023-10-25, 6, 0, 6, 0, 0
2023-10-26, 3, 0, 3, 0, 0
2023-10-27, 2, 0, 2, 0, 0
2023-10-28, 4, 0, 4, 0, 0
2023-10-29, 2, 0, 2, 0, 0
2023-10-30, 3, 0, 3, 0, 0
2023-10-31, 1, 0, 1, 0, 0
2023-11-01, 1, 0, 1, 0, 0
2023-11-02, 1, 1, 1, 0, 0
2023-11-03, 4, 0, 4, 0, 0
2023-11-04, 1, 0, 1, 0, 0
2023-11-05, 3, 0, 2, 0, 0
2023-11-06, 1, 0, 1, 0, 0
2023-11-07, 6, 0, 4, 0, 0
2023-11-08, 3, 0, 3, 0, 0
2023-11-09, 3, 0, 2, 0, 0
2023-11-10, 5, 0, 5, 0, 0
2023-11-11, 1, 0, 1, 0, 0
2023-11-12, 2, 0, 2, 0, 0
2023-11-13, 3, 0, 3, 0, 0
2023-11-14, 2, 0, 2, 0, 0
2023-11-16, 2, 0, 2, 0, 0
2023-11-18, 1, 1, 1, 0, 0
2023-11-19, 4, 0, 4, 0, 0
2023-11-20, 1, 0, 1, 0, 0
2023-11-21, 0, 1, 0, 0, 0
2023-11-22, 1, 0, 1, 0, 0
2023-11-23, 3, 0, 3, 0, 0
2023-11-24, 3, 0, 2, 0, 0
2023-11-25, 1, 0, 1, 0, 0
2023-11-26, 2, 0, 1, 0, 0
2023-11-28, 4, 0, 4, 0, 0
2023-11-29, 4, 0, 3, 0, 0
2023-11-30, 3, 0, 1, 0, 0
2023-12-01, 5, 0, 4, 0, 0
2023-12-02, 6, 2, 2, 0, 4
2023-12-03, 15, 1, 5, 0, 8
2023-12-04, 16, 0, 3, 0, 12
2023-12-05, 17, 1, 5, 0, 12
2023-12-06, 15, 0, 8, 0, 7
2023-12-07, 9, 0, 3, 0, 5
2023-12-08, 13, 0, 8, 0, 5
2023-12-09, 20, 0, 12, 0, 8
2023-12-10, 13, 0, 5, 0, 6
2023-12-11, 9, 0, 2, 0, 7
2023-12-12, 7, 0, 3, 0, 4
2023-12-13, 6, 0, 3, 0, 2
2023-12-14, 3, 0, 0, 0, 2
2023-12-15, 5, 1, 5, 0, 0
2023-12-16, 10, 1, 4, 0, 5
2023-12-17, 6, 1, 4, 0, 2
2023-12-18, 8, 0, 4, 0, 2
2023-12-19, 7, 0, 2, 0, 4
2023-12-20, 7, 0, 3, 0, 4
2023-12-21, 9, 0, 3, 0, 5
2023-12-22, 3, 0, 2, 0, 0
2023-12-23, 7, 0, 5, 0, 2
2023-12-24, 12, 0, 7, 0, 5
2023-12-25, 10, 1, 6, 0, 3
2023-12-26, 3, 0, 3, 0, 0
2023-12-27, 2, 1, 1, 0, 1
2023-12-28, 3, 1, 1, 0, 1
2023-12-29, 6, 3, 1, 0, 5
2023-12-30, 6, 1, 5, 0, 1
2023-12-31, 12, 0, 9, 0, 3
2024-01-01, 3, 0, 2, 0, 1
2024-01-02, 3, 2, 2, 0, 0
2024-01-03, 7, 1, 4, 0, 2
2024-01-04, 3, 0, 1, 0, 2
2024-01-05, 5, 1, 3, 0, 2
2024-01-06, 7, 0, 4, 0, 2
2024-01-07, 9, 1, 8, 0, 1
2024-01-08, 4, 0, 4, 0, 0
2024-01-09, 10, 0, 9, 0, 1
2024-01-10, 7, 1, 6, 0, 0
2024-01-11, 3, 0, 1, 0, 1
2024-01-12, 4, 0, 3, 0, 1
2024-01-13, 8, 0, 4, 0, 1
2024-01-14, 6, 0, 2, 0, 3
2024-01-15, 4, 1, 2, 0, 2
2024-01-16, 2, 0, 2, 0, 0
2024-01-17, 3, 0, 2, 0, 1
2024-01-18, 2, 0, 2, 0, 0
2024-01-19, 3, 0, 2, 0, 1
2024-01-20, 2, 0, 2, 0, 0
2024-01-21, 4, 0, 2, 0, 1
2024-01-22, 3, 0, 3, 0, 0
2024-01-23, 3, 0, 3, 0, 0
2024-01-24, 9, 0, 6, 0, 2
2024-01-25, 1, 0, 0, 0, 1
2024-01-26, 4, 0, 4, 0, 0
2024-01-27, 4, 0, 3, 0, 0
2024-01-28, 3, 0, 3, 0, 0
2024-01-29, 3, 0, 1, 0, 2
2024-01-30, 3, 0, 2, 0, 1
2024-01-31, 2, 0, 1, 0, 1
2024-02-01, 3, 2, 1, 0, 3
2024-02-02, 5, 1, 5, 0, 0
2024-02-03, 3, 0, 2, 0, 0
2024-02-04, 7, 0, 4, 0, 1
2024-02-05, 4, 0, 3, 0, 1
2024-02-06, 1, 0, 1, 0, 0
2024-02-07, 2, 0, 1, 0, 0
2024-02-08, 2, 1, 1, 0, 1
2024-02-09, 5, 0, 3, 0, 1
2024-02-10, 4, 0, 2, 0, 1
2024-02-11, 7, 0, 3, 0, 2
2024-02-12, 3, 2, 2, 0, 2
2024-02-13, 4, 0, 3, 0, 0
2024-02-14, 3, 0, 3, 0, 0
2024-02-15, 3, 0, 3, 0, 0
2024-02-16, 7, 0, 4, 0, 1
2024-02-17, 7, 0, 7, 0, 0
2024-02-18, 2, 0, 1, 0, 1
2024-02-19, 6, 0, 4, 0, 1
2024-02-20, 5, 1, 3, 0, 1
2024-02-21, 2, 2, 2, 0, 0
2024-02-22, 2, 2, 2, 0, 0
2024-02-23, 4, 0, 4, 0, 0
2024-02-24, 7, 0, 5, 0, 2
2024-02-25, 1, 0, 1, 0, 0
2024-02-26, 5, 0, 5, 0, 0
2024-02-27, 2, 0, 2, 0, 0
2024-02-28, 4, 0, 4, 0, 0
2024-03-02, 3, 1, 1, 0, 0
2024-03-03, 6, 1, 4, 0, 2
2024-03-04, 5, 0, 4, 0, 0
2024-03-05, 1, 0, 1, 0, 0
2024-03-06, 7, 1, 4, 0, 1
2024-03-07, 3, 0, 3, 0, 0
2024-03-08, 3, 0, 1, 0, 2
2024-03-09, 3, 0, 1, 0, 2
2024-03-10, 2, 0, 1, 0, 0
2024-03-11, 5, 2, 3, 0, 1
2024-03-12, 3, 0, 1, 0, 1
2024-03-13, 0, 1, 0, 0, 0
2024-03-14, 1, 0, 1, 0, 0
2024-03-15, 3, 0, 3, 0, 0
2024-03-16, 2, 2, 2, 0, 0
2024-03-17, 7, 0, 7, 0, 0
2024-03-19, 2, 0, 2, 0, 0
2024-03-20, 3, 0, 3, 0, 0
2024-03-21, 2, 0, 2, 0, 0
2024-03-22, 4, 0, 3, 0, 1
2024-03-23, 3, 0, 2, 0, 1
2024-03-24, 4, 1, 4, 0, 0
2024-03-25, 2, 0, 2, 0, 0
2024-03-27, 2, 0, 1, 0, 0
2024-03-28, 3, 0, 3, 0, 0
